| time (UTC) | temp F | wind direction | speed MPH | gust MPH | rain 1hr in | rain 24hr in | rain mn in | humidity % | barometer mb |
| 20260506031538 | 47 | 348 | 0.0 | 0.0 | 0.06 | 1.05 | 1.05 | 96 | 1009.4 |
| 20260506030054 | 48 | 347 | 0.0 | 2.0 | 0.06 | 1.04 | 1.04 | 96 | 1009.2 |
| 20260506024542 | 48 | 237 | 0.0 | 0.0 | 0.06 | 1.03 | 1.03 | 97 | 1009.8 |
| 20260506023033 | 48 | 237 | 0.0 | 0.0 | 0.05 | 1.01 | 1.01 | 96 | 1009.7 |
| 20260506021532 | 48 | 238 | 0.0 | 0.0 | 0.03 | 0.99 | 0.99 | 96 | 1009.7 |
| 20260506020033 | 48 | 237 | 0.0 | 0.0 | 0.03 | 0.98 | 0.98 | 96 | 1009.5 |
| 20260506014534 | 48 | 237 | 0.0 | 0.0 | 0.03 | 0.97 | 0.97 | 96 | 1009.8 |
| 20260506013031 | 48 | 237 | 0.0 | 0.0 | 0.05 | 0.96 | 0.96 | 96 | 1009.7 |
| 20260506011536 | 48 | 237 | 0.0 | 0.0 | 0.10 | 0.96 | 0.96 | 96 | 1009.5 |
| 20260506010028 | 48 | 237 | 0.0 | 0.0 | 0.12 | 0.95 | 0.95 | 96 | 1009.4 |
| 20260506004543 | 48 | 237 | 0.0 | 3.0 | 0.15 | 0.94 | 0.94 | 95 | 1009.7 |
| 20260506003032 | 48 | 304 | 0.0 | 0.0 | 0.15 | 0.91 | 0.91 | 95 | 1009.6 |
| 20260506001526 | 48 | 304 | 0.0 | 1.0 | 0.12 | 0.86 | 0.86 | 95 | 1009.4 |
| 20260506000026 | 48 | 304 | 0.0 | 2.0 | 0.11 | 0.83 | 0.83 | 95 | 1009.2 |
| 20260505234524 | 48 | 304 | 0.0 | 1.0 | 0.11 | 0.79 | 0.79 | 95 | 1008.8 |
| 20260505233024 | 48 | 304 | 0.0 | 3.0 | 0.10 | 0.76 | 0.76 | 95 | 1008.7 |
| 20260505231526 | 49 | 304 | 0.0 | 0.0 | 0.11 | 0.74 | 0.74 | 94 | 1008.6 |
| 20260505230026 | 49 | 304 | 0.0 | 1.0 | 0.13 | 0.71 | 0.71 | 94 | 1008.8 |
| 20260505224519 | 49 | 304 | 0.0 | 3.0 | 0.15 | 0.68 | 0.68 | 94 | 1009.0 |
| 20260505223018 | 49 | 292 | 0.0 | 1.0 | 0.19 | 0.66 | 0.66 | 93 | 1009.1 |
| 20260505221520 | 49 | 292 | 0.0 | 3.0 | 0.20 | 0.62 | 0.62 | 93 | 1009.3 |
| 20260505220016 | 49 | 330 | 0.0 | 3.0 | 0.24 | 0.57 | 0.57 | 92 | 1008.8 |
| 20260505214514 | 50 | 338 | 0.0 | 4.0 | 0.33 | 0.53 | 0.53 | 92 | 1008.9 |
| 20260505213011 | 50 | 316 | 0.0 | 3.0 | 0.32 | 0.47 | 0.47 | 91 | 1008.6 |
| 20260505211509 | 51 | 325 | 2.0 | 11.0 | 0.27 | 0.42 | 0.42 | 89 | 1008.4 |
| 20260505210004 | 53 | 306 | 1.0 | 11.0 | 0.19 | 0.34 | 0.34 | 89 | 1008.0 |
| 20260505204502 | 55 | 316 | 1.0 | 5.0 | 0.05 | 0.20 | 0.20 | 88 | 1007.6 |
| 20260505203059 | 56 | 200 | 2.0 | 8.0 | 0.00 | 0.15 | 0.15 | 85 | 1006.6 |
| 20260505201558 | 58 | 213 | 3.0 | 10.0 | 0.00 | 0.15 | 0.15 | 81 | 1006.6 |
| 20260505200057 | 62 | 232 | 6.0 | 17.0 | 0.00 | 0.15 | 0.15 | 70 | 1006.4 |
| 20260505194559 | 63 | 252 | 6.0 | 20.0 | 0.00 | 0.15 | 0.15 | 69 | 1005.9 |
| 20260505193119 | 64 | 278 | 3.0 | 16.0 | 0.00 | 0.15 | 0.15 | 71 | 1005.9 |
| 20260505191559 | 64 | 232 | 5.0 | 16.0 | 0.00 | 0.15 | 0.15 | 69 | 1005.8 |
| 20260505190053 | 66 | 239 | 9.0 | 24.0 | 0.00 | 0.15 | 0.15 | 68 | 1005.9 |
| 20260505184555 | 66 | 242 | 6.0 | 21.0 | 0.00 | 0.15 | 0.15 | 67 | 1005.5 |
| 20260505183052 | 67 | 271 | 7.0 | 21.0 | 0.00 | 0.15 | 0.15 | 66 | 1005.4 |
| 20260505181549 | 67 | 236 | 9.0 | 23.0 | 0.00 | 0.15 | 0.15 | 64 | 1005.2 |
| 20260505180048 | 67 | 252 | 9.0 | 17.0 | 0.00 | 0.15 | 0.15 | 65 | 1005.2 |
| 20260505174547 | 66 | 277 | 8.0 | 24.0 | 0.00 | 0.15 | 0.15 | 67 | 1005.0 |
| 20260505173046 | 67 | 240 | 9.0 | 23.0 | 0.00 | 0.15 | 0.15 | 68 | 1004.9 |
| 20260505171549 | 67 | 231 | 4.0 | 28.0 | 0.00 | 0.15 | 0.15 | 69 | 1004.9 |
| 20260505170042 | 66 | 257 | 10.0 | 25.0 | 0.00 | 0.15 | 0.15 | 68 | 1004.8 |
| 20260505164544 | 66 | 271 | 12.0 | 28.0 | 0.00 | 0.15 | 0.15 | 68 | 1004.7 |
| 20260505163042 | 65 | 244 | 9.0 | 26.0 | 0.00 | 0.15 | 0.15 | 69 | 1004.5 |
| 20260505161538 | 65 | 244 | 11.0 | 22.0 | 0.00 | 0.15 | 0.15 | 68 | 1004.2 |
| 20260505153043 | 66 | 121 | 6.0 | 16.0 | 0.00 | 0.15 | 0.15 | 67 | 1004.7 |
| 20260505151530 | 65 | 248 | 6.0 | 25.0 | 0.00 | 0.15 | 0.15 | 69 | 1004.0 |
| 20260505140121 | 63 | 257 | 5.0 | 17.0 | 0.00 | 0.15 | 0.15 | 72 | 1003.6 |
| 20260505124514 | 61 | 202 | 3.0 | 17.0 | 0.00 | 0.15 | 0.15 | 74 | 1002.7 |
| 20260505123016 | 63 | 221 | 8.0 | 18.0 | 0.00 | 0.15 | 0.15 | 71 | 1002.6 |
| 20260505121512 | 64 | 215 | 5.0 | 14.0 | 0.00 | 0.15 | 0.15 | 72 | 1002.5 |
| 20260505120019 | 64 | 254 | 7.0 | 17.0 | 0.00 | 0.15 | 0.15 | 72 | 1002.3 |
| 20260505114509 | 63 | 222 | 1.0 | 11.0 | 0.00 | 0.15 | 0.15 | 73 | 1002.0 |
| 20260505113009 | 63 | 202 | 3.0 | 14.0 | 0.00 | 0.15 | 0.15 | 74 | 1001.9 |
| 20260505111521 | 63 | 243 | 2.0 | 13.0 | 0.00 | 0.15 | 0.15 | 75 | 1001.9 |
| 20260505101559 | 60 | 220 | 3.0 | 9.0 | 0.00 | 0.15 | 0.15 | 84 | 1000.9 |
| 20260505100101 | 58 | 250 | 2.0 | 7.0 | 0.00 | 0.15 | 0.15 | 89 | 1000.9 |
| 20260505094558 | 57 | 205 | 1.0 | 6.0 | 0.00 | 0.15 | 0.15 | 92 | 1000.7 |
| 20260505093057 | 56 | 199 | 0.0 | 7.0 | 0.00 | 0.15 | 0.15 | 94 | 1000.7 |
| 20260505091620 | 55 | 183 | 1.0 | 4.0 | 0.01 | 0.15 | 0.15 | 95 | 1000.7 |
| 20260505090120 | 54 | 184 | 0.0 | 3.0 | 0.01 | 0.15 | 0.15 | 95 | 1000.6 |
| 20260505084612 | 54 | 192 | 0.0 | 3.0 | 0.01 | 0.15 | 0.15 | 95 | 1000.9 |
| 20260505083106 | 54 | 180 | 0.0 | 0.0 | 0.01 | 0.15 | 0.15 | 95 | 1001.0 |
| 20260505081601 | 54 | 182 | 0.0 | 4.0 | 0.00 | 0.14 | 0.14 | 95 | 1001.2 |
| 20260505080100 | 54 | 184 | 1.0 | 6.0 | 0.00 | 0.14 | 0.14 | 95 | 1001.3 |
| 20260505074549 | 54 | 194 | 1.0 | 7.0 | 0.00 | 0.14 | 0.14 | 94 | 1001.4 |
| 20260505073054 | 54 | 189 | 3.0 | 9.0 | 0.00 | 0.14 | 0.14 | 94 | 1001.5 |
| 20260505071552 | 55 | 160 | 2.0 | 7.0 | 0.03 | 0.14 | 0.14 | 94 | 1001.6 |
| 20260505070050 | 55 | 150 | 1.0 | 6.0 | 0.13 | 0.14 | 0.14 | 93 | 1001.7 |
| 20260505064540 | 56 | 144 | 1.0 | 4.0 | 0.14 | 0.14 | 0.14 | 93 | 1002.1 |
| 20260505063041 | 56 | 246 | 2.0 | 8.0 | 0.14 | 0.14 | 0.14 | 92 | 1002.9 |
| 20260505061536 | 56 | 194 | 3.0 | 14.0 | 0.11 | 0.11 | 0.11 | 91 | 1002.9 |
| 20260505060052 | 57 | 252 | 6.0 | 16.0 | 0.01 | 0.01 | 0.01 | 87 | 1002.8 |
| 20260505054527 | 60 | 244 | 5.0 | 16.0 | 0.00 | 0.00 | 0.00 | 80 | 1002.6 |
| 20260505053023 | 61 | 261 | 3.0 | 16.0 | 0.00 | 0.00 | 0.00 | 75 | 1002.6 |
| 20260505051521 | 62 | 182 | 4.0 | 14.0 | 0.00 | 0.00 | 0.00 | 71 | 1002.6 |
| 20260505050119 | 63 | 252 | 6.0 | 16.0 | 0.00 | 0.00 | 0.00 | 69 | 1002.7 |
| 20260505041512 | 64 | 239 | 5.0 | 14.0 | 0.00 | 0.00 | 0.00 | 69 | 1002.6 |
| 20260505040011 | 62 | 261 | 4.0 | 9.0 | 0.00 | 0.00 | 0.00 | 71 | 1002.6 |
| 20260505034508 | 61 | 179 | 1.0 | 5.0 | 0.00 | 0.00 | 0.00 | 70 | 1002.4 |
| 20260505033006 | 61 | 172 | 1.0 | 6.0 | 0.00 | 0.00 | 0.00 | 69 | 1002.6 |